Regional Weather Roundup
Issued by NWS

Home | Current Version | Previous Version | Graphics & Text | Print | Product List | Glossary On
Versions: 1 2 3 4 5 6 7 8 9 10 11 12 13 14 15 16 17 18 19 20 21 22 23 24 25 26 27 28 29 30 31 32 33 34 35 36 37 38 39 40 41 42 43 44 45 46 47 48 49 50
000
ASUS43 KFSD 071902
RWRSD

WEATHER ROUNDUP FOR SOUTH DAKOTA
NATIONAL WEATHER SERVICE SIOUX FALLS SD
200 PM CDT TUE JUL 07 2015

NOTE: "FAIR" INDICATES FEW OR NO CLOUDS BELOW 12,000 FEET WITH NO
SIGNIFICANT WEATHER AND/OR OBSTRUCTIONS TO VISIBILITY.


SDZ001>005-009-010-012>017-072000-
NORTHWEST AND NORTH CENTRAL SOUTH DAKOTA

CITY           SKY/WX    TMP DP  RH WIND       PRES   REMARKS
BUFFALO          N/A     80  53  39 S16G22    29.98F
FAITH            N/A     75  57  53 S21G30    30.07F
MOBRIDGE       SUNNY     75  56  51 SE16      30.09F
$$

SDZ012>016-024>037-041>051-057-063-072>074-072000-
SOUTHWEST AND SOUTH CENTRAL SOUTH DAKOTA

CITY           SKY/WX    TMP DP  RH WIND       PRES   REMARKS
RAPID CTY ARPT MOSUNNY   71  59  65 S22       30.09F
PIERRE         SUNNY     72  57  59 S14       30.11F
CUSTER         PTSUNNY   64  54  69 S8        30.19F HAZE
ELLSWORTH AFB  MOSUNNY   73  59  61 S22G32    30.07F
PHILIP         PTSUNNY   77  57  50 SE14G24   30.09F
PINE RIDGE     CLOUDY    69  54  58 S13       30.13F
WINNER         FAIR      73  56  54 SE12      30.15F
$$

SDZ004>011-016>023-039-040-072000-
NORTHEAST SOUTH DAKOTA

CITY           SKY/WX    TMP DP  RH WIND       PRES   REMARKS
ABERDEEN       SUNNY     70  43  37 SE10G17   30.16F
WATERTOWN      SUNNY     66  45  46 SE8       30.18F
BROOKINGS      MOSUNNY   63  45  51 E6        30.20F
SISSETON         N/A     68  44  42 SW9       30.16F
$$

SDZ017-020-022-023-036>040-048>070-072000-
SOUTHEAST SOUTH DAKOTA

CITY           SKY/WX    TMP DP  RH WIND       PRES   REMARKS
SIOUX FALLS    MOSUNNY   67  49  52 VRB3      30.18F
HURON          SUNNY     69  48  47 S9        30.17F
MITCHELL       SUNNY     70  49  47 MISG      30.18F
YANKTON        MOSUNNY   66  46  48 NE10      30.16F
$$

ABBREVIATIONS USED IN REMARKS
   TC - TEMPERATURE IN CELSIUS
  WCI - WIND CHILL INDEX
   HX - HEAT INDEX
  VSB - VISIBILITY



USA.gov is the U.S. government's official web portal to all federal, state and local government web resources and services.